Time,TemperatureF,DewpointF,PressureIn,WindDirection,WindDirectionDegrees,WindSpeedMPH,WindSpeedGustMPH,Humidity,HourlyPrecipIn,Conditions,Clouds,dailyrainin,SoftwareType,DateUTC
2013-06-15 00:02:00,58.0,52.0,-100.00,NNW,336,0.0,10.0,82,0.00,,,-99.99,,2013-06-15 04:02:00,
2013-06-15 00:12:00,56.0,52.0,-100.00,North,360,0.0,10.0,89,0.00,,,-99.99,,2013-06-15 04:12:00,
2013-06-15 00:22:00,57.0,52.0,-100.00,SSW,193,0.0,10.0,86,0.00,,,-99.99,,2013-06-15 04:22:00,
2013-06-15 00:34:00,56.0,52.0,-100.00,NNE,12,0.0,10.0,89,0.00,,,-99.99,,2013-06-15 04:34:00,
2013-06-15 00:43:00,56.0,52.0,-100.00,South,169,0.0,10.0,89,0.00,,,-99.99,,2013-06-15 04:43:00,
2013-06-15 00:54:00,56.0,52.0,-100.00,East,90,0.0,10.0,90,0.00,,,-99.99,,2013-06-15 04:54:00,
2013-06-15 01:02:00,55.0,52.0,-100.00,East,86,0.0,10.0,90,0.00,,,-99.99,,2013-06-15 05:02:00,
2013-06-15 01:12:00,55.0,52.0,-100.00,NNE,14,0.0,10.0,91,0.00,,,-99.99,,2013-06-15 05:12:00,
2013-06-15 01:22:00,55.0,52.0,-100.00,NNW,338,0.0,10.0,90,0.00,,,-99.99,,2013-06-15 05:22:00,
2013-06-15 01:34:00,55.0,52.0,-100.00,East,80,0.0,10.0,91,0.00,,,-99.99,,2013-06-15 05:34:00,
2013-06-15 01:43:00,54.0,52.0,-100.00,North,352,0.0,10.0,93,0.00,,,-99.99,,2013-06-15 05:43:00,
2013-06-15 01:52:00,54.0,52.0,-100.00,North,352,0.0,10.0,93,0.00,,,-99.99,,2013-06-15 05:52:00,
2013-06-15 02:02:00,54.0,50.0,-100.00,North,7,0.0,10.0,91,0.00,,,-99.99,,2013-06-15 06:02:00,
2013-06-15 02:12:00,55.0,52.0,-100.00,NNW,340,0.0,10.0,91,0.00,,,-99.99,,2013-06-15 06:12:00,
2013-06-15 02:24:00,53.0,50.0,-100.00,NNE,29,0.0,10.0,93,0.00,,,-99.99,,2013-06-15 06:24:00,
2013-06-15 02:33:00,53.0,50.0,-100.00,South,189,0.0,10.0,93,0.00,,,-99.99,,2013-06-15 06:33:00,
2013-06-15 02:43:00,53.0,50.0,-100.00,ESE,118,0.0,10.0,93,0.00,,,-99.99,,2013-06-15 06:43:00,
2013-06-15 02:53:00,53.0,50.0,-100.00,ESE,118,0.0,10.0,93,0.00,,,-99.99,,2013-06-15 06:53:00,
2013-06-15 03:01:00,53.0,50.0,-100.00,SE,134,0.0,10.0,93,0.00,,,-99.99,,2013-06-15 07:01:00,
2013-06-15 03:11:00,53.0,50.0,-100.00,SE,134,0.0,10.0,93,0.00,,,-99.99,,2013-06-15 07:11:00,
2013-06-15 03:23:00,52.0,50.0,-100.00,NE,43,0.0,10.0,93,0.00,,,-99.99,,2013-06-15 07:23:00,
2013-06-15 03:33:00,51.0,48.0,-100.00,NNE,18,0.0,10.0,94,0.00,,,-99.99,,2013-06-15 07:33:00,
2013-06-15 03:43:00,51.0,48.0,-100.00,North,0,0.0,10.0,94,0.00,,,-99.99,,2013-06-15 07:43:00,
2013-06-15 03:53:00,50.0,48.0,-100.00,NNW,343,0.0,10.0,94,0.00,,,-99.99,,2013-06-15 07:53:00,
2013-06-15 04:02:00,50.0,48.0,-100.00,North,0,0.0,0.0,94,0.00,,,-99.99,,2013-06-15 08:02:00,
2013-06-15 04:11:00,50.0,48.0,-100.00,NNW,328,0.0,0.0,94,0.00,,,-99.99,,2013-06-15 08:11:00,
2013-06-15 04:22:00,50.0,48.0,-100.00,NNW,340,0.0,0.0,95,0.00,,,-99.99,,2013-06-15 08:22:00,
2013-06-15 04:33:00,50.0,48.0,-100.00,NNE,33,0.0,0.0,95,0.00,,,-99.99,,2013-06-15 08:33:00,
2013-06-15 04:43:00,51.0,48.0,-100.00,SW,220,0.0,0.0,95,0.00,,,-99.99,,2013-06-15 08:43:00,
2013-06-15 04:53:00,51.0,48.0,-100.00,SW,220,0.0,0.0,95,0.00,,,-99.99,,2013-06-15 08:53:00,
2013-06-15 05:02:00,50.0,48.0,-100.00,ESE,104,0.0,0.0,94,0.00,,,-99.99,,2013-06-15 09:02:00,
2013-06-15 05:12:00,50.0,48.0,-100.00,South,184,0.0,0.0,95,0.00,,,-99.99,,2013-06-15 09:12:00,
2013-06-15 05:22:00,50.0,48.0,-100.00,South,184,0.0,0.0,95,0.00,,,-99.99,,2013-06-15 09:22:00,
2013-06-15 05:33:00,50.0,48.0,-100.00,ENE,59,0.0,0.0,95,0.00,,,-99.99,,2013-06-15 09:33:00,
2013-06-15 05:43:00,49.0,46.0,-100.00,North,4,0.0,0.0,95,0.00,,,-99.99,,2013-06-15 09:43:00,
2013-06-15 05:52:00,49.0,46.0,-100.00,North,360,0.0,0.0,95,0.00,,,-99.99,,2013-06-15 09:52:00,
2013-06-15 06:02:00,49.0,46.0,-100.00,NW,316,0.0,0.0,95,0.00,,,-99.99,,2013-06-15 10:02:00,
2013-06-15 06:12:00,49.0,46.0,-100.00,NW,316,0.0,0.0,95,0.00,,,-99.99,,2013-06-15 10:12:00,
2013-06-15 06:23:00,49.0,46.0,-100.00,WNW,292,0.0,0.0,95,0.00,,,-99.99,,2013-06-15 10:23:00,
2013-06-15 06:34:00,49.0,46.0,-100.00,North,4,0.0,0.0,95,0.00,,,-99.99,,2013-06-15 10:34:00,
2013-06-15 06:44:00,49.0,46.0,-100.00,ESE,107,0.0,0.0,95,0.00,,,-99.99,,2013-06-15 10:44:00,
2013-06-15 06:53:00,49.0,46.0,-100.00,ESE,107,0.0,0.0,95,0.00,,,-99.99,,2013-06-15 10:53:00,
2013-06-15 07:02:00,49.0,46.0,-100.00,SE,131,0.0,0.0,95,0.00,,,-99.99,,2013-06-15 11:02:00,
2013-06-15 07:12:00,49.0,46.0,-100.00,South,183,0.0,0.0,95,0.00,,,-99.99,,2013-06-15 11:12:00,
2013-06-15 07:22:00,49.0,46.0,-100.00,SSE,153,0.0,0.0,95,0.00,,,-99.99,,2013-06-15 11:22:00,
2013-06-15 07:33:00,49.0,46.0,-100.00,SE,129,0.0,0.0,95,0.00,,,-99.99,,2013-06-15 11:33:00,
2013-06-15 07:43:00,52.0,50.0,-100.00,SE,139,0.0,0.0,97,0.00,,,-99.99,,2013-06-15 11:43:00,
2013-06-15 07:53:00,50.0,48.0,-100.00,SSE,153,0.0,0.0,95,0.00,,,-99.99,,2013-06-15 11:53:00,
2013-06-15 08:02:00,51.0,48.0,-100.00,NNE,26,0.0,0.0,95,0.00,,,-99.99,,2013-06-15 12:02:00,
2013-06-15 08:12:00,54.0,52.0,-100.00,SW,230,0.0,0.0,97,0.00,,,-99.99,,2013-06-15 12:12:00,
2013-06-15 08:22:00,53.0,52.0,-100.00,SSW,200,0.0,0.0,95,0.00,,,-99.99,,2013-06-15 12:22:00,
2013-06-15 08:33:00,54.0,52.0,-100.00,NE,43,0.0,0.0,94,0.00,,,-99.99,,2013-06-15 12:33:00,
2013-06-15 08:43:00,56.0,52.0,-100.00,SSW,211,0.0,0.0,89,0.00,,,-99.99,,2013-06-15 12:43:00,
2013-06-15 08:52:00,56.0,52.0,-100.00,SSW,211,0.0,0.0,89,0.00,,,-99.99,,2013-06-15 12:52:00,
2013-06-15 09:02:00,59.0,55.0,-100.00,North,7,0.0,0.0,88,0.00,,,-99.99,,2013-06-15 13:02:00,
2013-06-15 09:11:00,59.0,52.0,-100.00,WNW,302,0.0,0.0,82,0.00,,,-99.99,,2013-06-15 13:11:00,
2013-06-15 09:22:00,61.0,54.0,-100.00,West,262,0.0,0.0,80,0.00,,,-99.99,,2013-06-15 13:22:00,
2013-06-15 09:32:00,62.0,54.0,-100.00,NE,38,0.0,0.0,77,0.00,,,-99.99,,2013-06-15 13:32:00,
2013-06-15 09:43:00,62.0,54.0,-100.00,South,180,0.0,0.0,76,0.00,,,-99.99,,2013-06-15 13:43:00,
2013-06-15 09:53:00,64.0,55.0,-100.00,South,179,0.0,1.0,75,0.00,,,-99.99,,2013-06-15 13:53:00,
2013-06-15 10:02:00,66.0,55.0,-100.00,South,175,0.0,1.0,69,0.00,,,-99.99,,2013-06-15 14:02:00,
2013-06-15 10:12:00,67.0,55.0,-100.00,North,360,0.0,1.0,68,0.00,,,-99.99,,2013-06-15 14:12:00,
2013-06-15 10:22:00,67.0,55.0,-100.00,WNW,286,1.0,1.0,69,0.00,,,-99.99,,2013-06-15 14:22:00,
2013-06-15 10:34:00,69.0,54.0,-100.00,NNW,331,1.0,1.0,62,0.00,,,-99.99,,2013-06-15 14:34:00,
2013-06-15 10:43:00,71.0,54.0,-100.00,WNW,289,0.0,1.0,58,0.00,,,-99.99,,2013-06-15 14:43:00,
2013-06-15 10:53:00,70.0,54.0,-100.00,West,271,1.0,2.0,58,0.00,,,-99.99,,2013-06-15 14:53:00,
2013-06-15 11:02:00,70.0,54.0,-100.00,NW,320,1.0,2.0,58,0.00,,,-99.99,,2013-06-15 15:02:00,
2013-06-15 11:11:00,70.0,52.0,-100.00,NNW,337,1.0,2.0,55,0.00,,,-99.99,,2013-06-15 15:11:00,
2013-06-15 11:22:00,72.0,54.0,-100.00,NW,319,1.0,2.0,54,0.00,,,-99.99,,2013-06-15 15:22:00,
2013-06-15 11:33:00,71.0,54.0,-100.00,WNW,292,0.0,2.0,54,0.00,,,-99.99,,2013-06-15 15:33:00,
2013-06-15 11:43:00,72.0,54.0,-100.00,North,357,0.0,2.0,53,0.00,,,-99.99,,2013-06-15 15:43:00,
2013-06-15 11:53:00,74.0,54.0,-100.00,North,351,0.0,2.0,50,0.00,,,-99.99,,2013-06-15 15:53:00,
2013-06-15 12:01:00,74.0,54.0,-100.00,NE,40,0.0,2.0,50,0.00,,,-99.99,,2013-06-15 16:01:00,
2013-06-15 12:11:00,74.0,52.0,-100.00,North,8,0.0,2.0,47,0.00,,,-99.99,,2013-06-15 16:11:00,
2013-06-15 12:22:00,76.0,52.0,-100.00,North,9,1.0,2.0,45,0.00,,,-99.99,,2013-06-15 16:22:00,
2013-06-15 12:33:00,74.0,48.0,-100.00,SSW,210,2.0,4.0,42,0.00,,,-99.99,,2013-06-15 16:33:00,
2013-06-15 12:43:00,76.0,52.0,-100.00,WSW,240,1.0,4.0,45,0.00,,,-99.99,,2013-06-15 16:43:00,
2013-06-15 12:53:00,75.0,50.0,-100.00,North,358,2.0,4.0,44,0.00,,,-99.99,,2013-06-15 16:53:00,
2013-06-15 13:02:00,76.0,52.0,-100.00,North,0,1.0,4.0,46,0.00,,,-99.99,,2013-06-15 17:02:00,
2013-06-15 13:12:00,76.0,52.0,-100.00,NW,314,1.0,4.0,44,0.00,,,-99.99,,2013-06-15 17:12:00,
2013-06-15 13:22:00,76.0,48.0,-100.00,West,262,1.0,4.0,40,0.00,,,-99.99,,2013-06-15 17:22:00,
2013-06-15 13:32:00,77.0,46.0,-100.00,East,81,0.0,4.0,36,0.00,,,-99.99,,2013-06-15 17:32:00,
2013-06-15 13:43:00,76.0,52.0,-100.00,WNW,290,1.0,4.0,44,0.00,,,-99.99,,2013-06-15 17:43:00,
2013-06-15 13:52:00,76.0,46.0,-100.00,SW,231,1.0,4.0,36,0.00,,,-99.99,,2013-06-15 17:52:00,
2013-06-15 14:01:00,76.0,48.0,-100.00,NW,306,1.0,4.0,38,0.00,,,-99.99,,2013-06-15 18:01:00,
2013-06-15 14:12:00,79.0,52.0,-100.00,South,176,1.0,4.0,42,0.00,,,-99.99,,2013-06-15 18:12:00,
2013-06-15 14:22:00,77.0,48.0,-100.00,WNW,289,2.0,4.0,37,0.00,,,-99.99,,2013-06-15 18:22:00,
2013-06-15 14:32:00,79.0,50.0,-100.00,NNE,15,1.0,4.0,38,0.00,,,-99.99,,2013-06-15 18:32:00,
2013-06-15 14:43:00,80.0,54.0,-100.00,WSW,249,1.0,4.0,41,0.00,,,-99.99,,2013-06-15 18:43:00,
2013-06-15 14:53:00,79.0,50.0,-100.00,SSW,213,2.0,4.0,38,0.00,,,-99.99,,2013-06-15 18:53:00,
2013-06-15 15:02:00,80.0,54.0,-100.00,WSW,247,2.0,4.0,42,0.00,,,-99.99,,2013-06-15 19:02:00,
2013-06-15 15:12:00,81.0,54.0,-100.00,NW,320,1.0,4.0,41,0.00,,,-99.99,,2013-06-15 19:12:00,
2013-06-15 15:22:00,81.0,54.0,-100.00,NW,320,0.0,4.0,41,0.00,,,-99.99,,2013-06-15 19:22:00,
2013-06-15 15:33:00,80.0,50.0,-100.00,SSW,193,2.0,6.0,37,0.00,,,-99.99,,2013-06-15 19:33:00,
2013-06-15 15:43:00,80.0,54.0,-100.00,SSW,201,1.0,6.0,41,0.00,,,-99.99,,2013-06-15 19:43:00,
2013-06-15 15:52:00,80.0,50.0,-100.00,SSW,201,2.0,6.0,37,0.00,,,-99.99,,2013-06-15 19:52:00,
2013-06-15 16:02:00,79.0,52.0,-100.00,WNW,285,1.0,6.0,40,0.00,,,-99.99,,2013-06-15 20:02:00,
2013-06-15 16:11:00,83.0,57.0,-100.00,South,175,1.0,6.0,42,0.00,,,-99.99,,2013-06-15 20:11:00,
2013-06-15 16:22:00,81.0,54.0,-100.00,SSW,207,2.0,6.0,41,0.00,,,-99.99,,2013-06-15 20:22:00,
2013-06-15 16:33:00,80.0,54.0,-100.00,SW,234,4.0,6.0,41,0.00,,,-99.99,,2013-06-15 20:33:00,
2013-06-15 16:43:00,82.0,54.0,-100.00,West,272,2.0,6.0,40,0.00,,,-99.99,,2013-06-15 20:43:00,
2013-06-15 16:53:00,81.0,52.0,-100.00,WNW,288,1.0,6.0,38,0.00,,,-99.99,,2013-06-15 20:53:00,
2013-06-15 17:02:00,82.0,55.0,-100.00,WNW,288,2.0,6.0,41,0.00,,,-99.99,,2013-06-15 21:02:00,
2013-06-15 17:12:00,82.0,54.0,-100.00,South,186,2.0,6.0,38,0.00,,,-99.99,,2013-06-15 21:12:00,
2013-06-15 17:22:00,82.0,54.0,-100.00,SSE,155,2.0,6.0,40,0.00,,,-99.99,,2013-06-15 21:22:00,
2013-06-15 17:34:00,81.0,54.0,-100.00,West,278,5.0,8.0,40,0.00,,,-99.99,,2013-06-15 21:34:00,
2013-06-15 17:42:00,80.0,55.0,-100.00,SW,223,3.0,8.0,44,0.00,,,-99.99,,2013-06-15 21:42:00,
2013-06-15 17:52:00,80.0,55.0,-100.00,NNW,347,2.0,8.0,44,0.00,,,-99.99,,2013-06-15 21:52:00,
2013-06-15 18:01:00,80.0,54.0,-100.00,West,259,2.0,8.0,42,0.00,,,-99.99,,2013-06-15 22:01:00,
2013-06-15 18:11:00,80.0,54.0,-100.00,WSW,242,2.0,8.0,41,0.00,,,-99.99,,2013-06-15 22:11:00,
2013-06-15 18:22:00,80.0,55.0,-100.00,West,266,1.0,8.0,45,0.00,,,-99.99,,2013-06-15 22:22:00,
2013-06-15 18:33:00,79.0,55.0,-100.00,NW,317,2.0,8.0,46,0.00,,,-99.99,,2013-06-15 22:33:00,
2013-06-15 18:43:00,79.0,55.0,-100.00,NW,310,1.0,8.0,46,0.00,,,-99.99,,2013-06-15 22:43:00,
2013-06-15 18:53:00,78.0,55.0,-100.00,SW,218,2.0,8.0,47,0.00,,,-99.99,,2013-06-15 22:53:00,
2013-06-15 19:02:00,78.0,55.0,-100.00,WSW,251,1.0,8.0,47,0.00,,,-99.99,,2013-06-15 23:02:00,
2013-06-15 19:12:00,78.0,57.0,-100.00,West,271,1.0,8.0,50,0.00,,,-99.99,,2013-06-15 23:12:00,
2013-06-15 19:22:00,78.0,57.0,-100.00,West,262,1.0,8.0,50,0.00,,,-99.99,,2013-06-15 23:22:00,
2013-06-15 19:33:00,75.0,54.0,-100.00,NW,304,1.0,8.0,51,1.14,,,-99.99,,2013-06-15 23:33:00,
2013-06-15 19:42:00,73.0,54.0,-100.00,West,279,1.0,8.0,53,0.00,,,-99.99,,2013-06-15 23:42:00,
2013-06-15 19:53:00,73.0,55.0,-100.00,West,273,1.0,8.0,56,4.53,,,-99.99,,2013-06-15 23:53:00,
2013-06-15 20:02:00,74.0,59.0,-100.00,SW,234,0.0,8.0,60,0.00,,,-99.99,,2013-06-16 00:02:00,
2013-06-15 20:11:00,71.0,55.0,-100.00,NW,307,0.0,8.0,59,0.00,,,-99.99,,2013-06-16 00:11:00,
2013-06-15 20:22:00,72.0,55.0,-100.00,NNE,22,0.0,8.0,60,0.00,,,-99.99,,2013-06-16 00:22:00,
2013-06-15 20:34:00,71.0,55.0,-100.00,NW,304,0.0,8.0,62,0.00,,,-99.99,,2013-06-16 00:34:00,
2013-06-15 20:43:00,71.0,59.0,-100.00,SE,125,0.0,8.0,67,0.00,,,-99.99,,2013-06-16 00:43:00,
2013-06-15 20:52:00,71.0,57.0,-100.00,SSW,207,0.0,8.0,64,0.00,,,-99.99,,2013-06-16 00:52:00,
2013-06-15 21:02:00,70.0,59.0,-100.00,South,189,0.0,8.0,68,0.00,,,-99.99,,2013-06-16 01:02:00,
2013-06-15 21:12:00,71.0,59.0,-100.00,South,173,0.0,8.0,67,0.00,,,-99.99,,2013-06-16 01:12:00,
2013-06-15 21:22:00,70.0,59.0,-100.00,SSW,197,0.0,8.0,71,0.00,,,-99.99,,2013-06-16 01:22:00,
2013-06-15 21:33:00,69.0,59.0,-100.00,SSW,197,0.0,8.0,75,0.00,,,-99.99,,2013-06-16 01:33:00,
2013-06-15 21:42:00,68.0,59.0,-100.00,SE,146,0.0,8.0,75,0.00,,,-99.99,,2013-06-16 01:42:00,
2013-06-15 21:53:00,68.0,57.0,-100.00,SSW,211,0.0,8.0,72,0.00,,,-99.99,,2013-06-16 01:53:00,
2013-06-15 22:02:00,67.0,59.0,-100.00,NNE,12,0.0,8.0,77,0.00,,,-99.99,,2013-06-16 02:02:00,
2013-06-15 22:12:00,67.0,59.0,-100.00,SSE,159,0.0,8.0,77,0.00,,,-99.99,,2013-06-16 02:12:00,
2013-06-15 22:22:00,67.0,59.0,-100.00,South,182,0.0,8.0,78,0.00,,,-99.99,,2013-06-16 02:22:00,
2013-06-15 22:33:00,65.0,59.0,-100.00,SE,134,0.0,8.0,81,0.00,,,-99.99,,2013-06-16 02:33:00,
2013-06-15 22:43:00,65.0,59.0,-100.00,SSE,152,0.0,8.0,80,0.00,,,-99.99,,2013-06-16 02:43:00,
2013-06-15 22:53:00,66.0,59.0,-100.00,South,173,0.0,8.0,80,0.00,,,-99.99,,2013-06-16 02:53:00,
2013-06-15 23:02:00,67.0,61.0,-100.00,NNE,19,0.0,8.0,82,0.00,,,-99.99,,2013-06-16 03:02:00,
2013-06-15 23:12:00,64.0,57.0,-100.00,North,8,0.0,8.0,81,0.00,,,-99.99,,2013-06-16 03:12:00,
2013-06-15 23:22:00,66.0,61.0,-100.00,NNE,18,0.0,8.0,84,0.00,,,-99.99,,2013-06-16 03:22:00,
2013-06-15 23:34:00,65.0,59.0,-100.00,SSW,193,0.0,8.0,81,0.00,,,-99.99,,2013-06-16 03:34:00,
2013-06-15 23:43:00,66.0,59.0,-100.00,South,184,0.0,8.0,82,0.00,,,-99.99,,2013-06-16 03:43:00,
2013-06-15 23:53:00,66.0,61.0,-100.00,SE,136,0.0,8.0,85,0.00,,,-99.99,,2013-06-16 03:53:00,